Find ST-1

NORAD ID: 25460 Int'l Des: 1998-049 Owner: STEL Country: SG operational
HEOCIRCULAR

Live-Position

3D-Globus wird geladen...

Über ST-1

Beschreibung wird geladen...

Nächste Überflüge

Passes for default location (London). Set your location on the main map for personalized predictions.

Höhenverlauf

Loading altitude history...

Zweizeiliger Elementsatz

1 25460U 98049A 26105.68544641 -.00000234 00000-0 00000-0 0 9999
2 25460 10.9368 45.8880 0015345 321.3342 247.5416 0.98750237 44452
Epoch: 15. Apr. 2026 • Age: 26 hours

Aktueller Status

Höhe 36223.7 km
Geschwindigkeit 3.06 km/s
Subsatellitenpunkt -8.10°S, 157.62°E
Startdatum 25. Aug. 1998
Alter 27.6 years
Typ other

Technische Details

Klassifizierung Payload
Masse 3255.00 kg
Trockenmasse 1502.00 kg
Gesamtmasse 3255.00 kg
Länge 2.90 m
Durchmesser 1.70 m
Spannweite 22.50 m
Form Box + 2 Pan
Hersteller MMST
Bus-Typ Eurostar 2000+
Phasenstatus In Orbit
Besitzer/Staat STEL/SG

Most Searched